Time,TemperatureF,DewpointF,PressureIn,WindDirection,WindDirectionDegrees,WindSpeedMPH,WindSpeedGustMPH,Humidity,HourlyPrecipIn,Conditions,Clouds,dailyrainin,SolarRadiationWatts/m^2,SoftwareType,DateUTC
2013-02-06 00:00:00,12.9,12.9,30.10,NNE,26,0.0,0.0,100,0.00,,,0.00,0,WeatherHawk,2013-02-06 06:00:00,
2013-02-06 00:05:00,10.7,10.7,30.10,NNE,26,0.0,0.0,100,0.00,,,0.00,0,WeatherHawk,2013-02-06 06:05:00,
2013-02-06 00:10:00,8.8,8.8,30.11,NNE,26,0.0,0.0,100,0.00,,,0.00,0,WeatherHawk,2013-02-06 06:10:00,
2013-02-06 00:15:00,6.4,5.7,30.11,NNE,26,0.0,0.0,97,0.00,,,0.00,0,WeatherHawk,2013-02-06 06:15:00,
2013-02-06 00:20:00,9.4,9.1,30.11,NNE,26,0.0,0.0,99,0.00,,,0.00,0,WeatherHawk,2013-02-06 06:20:00,
2013-02-06 00:25:00,8.6,8.6,30.11,NNE,26,0.0,0.0,100,0.00,,,0.00,0,WeatherHawk,2013-02-06 06:25:00,
2013-02-06 00:30:00,6.6,6.4,30.11,SSW,202,0.0,0.0,99,0.00,,,0.00,0,WeatherHawk,2013-02-06 06:30:00,
2013-02-06 00:35:00,8.1,7.8,30.11,SSW,202,0.0,0.0,99,0.00,,,0.00,0,WeatherHawk,2013-02-06 06:35:00,
2013-02-06 00:40:00,8.6,8.4,30.12,SSW,202,0.0,0.0,99,0.00,,,0.00,0,WeatherHawk,2013-02-06 06:40:00,
2013-02-06 00:45:00,10.5,10.5,30.12,SSW,202,0.0,0.0,100,0.00,,,0.00,0,WeatherHawk,2013-02-06 06:45:00,
2013-02-06 00:50:00,11.0,11.0,30.12,SSW,202,0.0,0.0,100,0.00,,,0.00,0,WeatherHawk,2013-02-06 06:50:00,
2013-02-06 00:55:00,6.9,6.9,30.12,SSW,202,0.0,0.0,100,0.00,,,0.00,1,WeatherHawk,2013-02-06 06:55:00,
2013-02-06 01:00:00,11.3,11.3,30.12,SSW,202,0.0,0.0,100,0.00,,,0.00,0,WeatherHawk,2013-02-06 07:00:00,
2013-02-06 01:05:00,11.4,11.4,30.12,SSW,202,0.0,0.0,100,0.00,,,0.00,0,WeatherHawk,2013-02-06 07:05:00,
2013-02-06 01:10:00,9.3,9.3,30.12,SSW,202,0.0,0.0,100,0.00,,,0.00,1,WeatherHawk,2013-02-06 07:10:00,
2013-02-06 01:15:00,8.4,8.4,30.12,SSW,202,0.0,0.0,100,0.00,,,0.00,0,WeatherHawk,2013-02-06 07:15:00,
2013-02-06 01:20:00,7.4,7.2,30.13,SSW,202,0.0,0.0,99,0.00,,,0.00,0,WeatherHawk,2013-02-06 07:20:00,
2013-02-06 01:25:00,5.1,4.0,30.13,SSW,202,0.0,0.0,95,0.00,,,0.00,0,WeatherHawk,2013-02-06 07:25:00,
2013-02-06 01:30:00,4.3,2.5,30.13,SSW,202,0.0,0.0,92,0.00,,,0.00,0,WeatherHawk,2013-02-06 07:30:00,
2013-02-06 01:35:00,5.2,3.6,30.13,SSW,202,0.0,0.0,93,0.00,,,0.00,0,WeatherHawk,2013-02-06 07:35:00,
2013-02-06 01:40:00,6.1,4.5,30.13,SSW,202,0.0,0.0,93,0.00,,,0.00,0,WeatherHawk,2013-02-06 07:40:00,
2013-02-06 01:45:00,6.3,5.9,30.13,SSW,202,0.0,0.0,98,0.00,,,0.00,1,WeatherHawk,2013-02-06 07:45:00,
2013-02-06 01:50:00,5.9,5.7,30.13,SSW,202,0.0,0.0,99,0.00,,,0.00,0,WeatherHawk,2013-02-06 07:50:00,
2013-02-06 01:55:00,2.8,2.2,30.13,SSW,202,0.0,0.0,97,0.00,,,0.00,0,WeatherHawk,2013-02-06 07:55:00,
2013-02-06 02:00:00,5.4,4.3,30.13,SSW,202,0.0,0.0,95,0.00,,,0.00,0,WeatherHawk,2013-02-06 08:00:00,
2013-02-06 02:05:00,5.5,4.6,30.13,SSW,202,0.0,0.0,96,0.00,,,0.00,1,WeatherHawk,2013-02-06 08:05:00,
2013-02-06 02:10:00,6.7,5.8,30.14,SSW,202,0.0,0.0,96,0.00,,,0.00,0,WeatherHawk,2013-02-06 08:10:00,
2013-02-06 02:15:00,6.0,5.1,30.14,SSW,202,0.0,0.0,96,0.00,,,0.00,0,WeatherHawk,2013-02-06 08:15:00,
2013-02-06 02:20:00,4.9,4.2,30.14,SSW,202,0.0,0.0,97,0.00,,,0.00,0,WeatherHawk,2013-02-06 08:20:00,
2013-02-06 02:25:00,2.0,1.2,30.14,SSW,202,0.0,0.0,96,0.00,,,0.00,0,WeatherHawk,2013-02-06 08:25:00,
2013-02-06 02:30:00,4.8,3.7,30.14,SSW,202,0.0,0.0,95,0.00,,,0.00,0,WeatherHawk,2013-02-06 08:30:00,
2013-02-06 02:35:00,3.3,2.4,30.14,SSW,202,0.0,0.0,96,0.00,,,0.00,0,WeatherHawk,2013-02-06 08:35:00,
2013-02-06 02:40:00,4.3,3.2,30.14,SSW,202,0.0,0.0,95,0.00,,,0.00,1,WeatherHawk,2013-02-06 08:40:00,
2013-02-06 02:45:00,5.7,4.8,30.14,SSW,202,0.0,0.0,96,0.00,,,0.00,0,WeatherHawk,2013-02-06 08:45:00,
2013-02-06 02:50:00,3.8,2.9,30.15,SSW,202,0.0,0.0,96,0.00,,,0.00,0,WeatherHawk,2013-02-06 08:50:00,
2013-02-06 02:55:00,2.6,1.5,30.15,SSW,202,0.0,0.0,95,0.00,,,0.00,0,WeatherHawk,2013-02-06 08:55:00,
2013-02-06 03:00:00,3.0,1.9,30.15,SSW,202,0.0,0.0,95,0.00,,,0.00,0,WeatherHawk,2013-02-06 09:00:00,
2013-02-06 03:05:00,5.8,4.3,30.16,SSW,202,0.0,0.0,93,0.00,,,0.00,0,WeatherHawk,2013-02-06 09:05:00,
2013-02-06 03:10:00,7.3,7.3,30.16,SSW,202,0.0,0.0,100,0.00,,,0.00,0,WeatherHawk,2013-02-06 09:10:00,
2013-02-06 03:15:00,8.7,8.7,30.16,SSW,202,0.0,0.0,100,0.00,,,0.00,0,WeatherHawk,2013-02-06 09:15:00,
2013-02-06 03:20:00,7.4,7.4,30.16,SSW,202,0.0,0.0,100,0.00,,,0.00,0,WeatherHawk,2013-02-06 09:20:00,
2013-02-06 03:25:00,7.6,7.6,30.16,SSW,202,0.0,0.0,100,0.00,,,0.00,0,WeatherHawk,2013-02-06 09:25:00,
2013-02-06 03:30:00,3.7,3.7,30.15,SSW,202,0.0,0.0,100,0.00,,,0.00,1,WeatherHawk,2013-02-06 09:30:00,
2013-02-06 03:35:00,2.4,1.1,30.16,SSW,202,0.0,0.0,94,0.00,,,0.00,0,WeatherHawk,2013-02-06 09:35:00,
2013-02-06 03:40:00,4.2,2.7,30.16,SSW,202,0.0,0.0,93,0.00,,,0.00,0,WeatherHawk,2013-02-06 09:40:00,
2013-02-06 03:45:00,5.0,3.9,30.16,SSW,202,0.0,0.0,95,0.00,,,0.00,0,WeatherHawk,2013-02-06 09:45:00,
2013-02-06 03:50:00,2.5,1.4,30.16,SSW,202,0.0,0.0,95,0.00,,,0.00,0,WeatherHawk,2013-02-06 09:50:00,
2013-02-06 03:55:00,1.8,0.2,30.16,SSW,202,0.0,0.0,93,0.00,,,0.00,0,WeatherHawk,2013-02-06 09:55:00,
2013-02-06 04:00:00,3.4,1.6,30.16,SSW,202,0.0,0.0,92,0.00,,,0.00,0,WeatherHawk,2013-02-06 10:00:00,
2013-02-06 04:05:00,5.1,4.5,30.16,SSW,202,0.0,0.0,97,0.00,,,0.00,1,WeatherHawk,2013-02-06 10:05:00,
2013-02-06 04:10:00,3.3,2.2,30.16,SSW,202,0.0,0.0,95,0.00,,,0.00,0,WeatherHawk,2013-02-06 10:10:00,
2013-02-06 04:15:00,0.6,-1.4,30.16,SSW,202,0.0,0.0,91,0.00,,,0.00,0,WeatherHawk,2013-02-06 10:15:00,
2013-02-06 04:20:00,3.7,1.7,30.15,SSW,202,0.0,0.0,91,0.00,,,0.00,0,WeatherHawk,2013-02-06 10:20:00,
2013-02-06 04:25:00,7.4,7.4,30.14,NE,56,0.0,0.0,100,0.00,,,0.00,0,WeatherHawk,2013-02-06 10:25:00,
2013-02-06 04:30:00,7.6,7.6,30.14,NE,47,0.0,0.0,100,0.00,,,0.00,0,WeatherHawk,2013-02-06 10:30:00,
2013-02-06 04:35:00,4.2,4.2,30.14,NE,47,0.0,0.0,100,0.00,,,0.00,0,WeatherHawk,2013-02-06 10:35:00,
2013-02-06 04:40:00,2.0,0.9,30.14,NE,47,0.0,0.0,95,0.00,,,0.00,0,WeatherHawk,2013-02-06 10:40:00,
2013-02-06 04:45:00,1.0,-1.3,30.14,NE,47,0.0,0.0,90,0.00,,,0.00,0,WeatherHawk,2013-02-06 10:45:00,
2013-02-06 04:50:00,1.4,-0.6,30.14,NE,47,0.0,0.0,91,0.00,,,0.00,0,WeatherHawk,2013-02-06 10:50:00,
2013-02-06 04:55:00,2.6,0.5,30.15,NE,47,0.0,0.0,91,0.00,,,0.00,0,WeatherHawk,2013-02-06 10:55:00,
2013-02-06 05:00:00,0.9,-0.9,30.15,NE,47,0.0,0.0,92,0.00,,,0.00,0,WeatherHawk,2013-02-06 11:00:00,
2013-02-06 05:05:00,4.2,2.4,30.16,NE,47,0.0,0.0,92,0.00,,,0.00,1,WeatherHawk,2013-02-06 11:05:00,
2013-02-06 05:10:00,4.8,3.7,30.16,NE,47,0.0,0.0,95,0.00,,,0.00,0,WeatherHawk,2013-02-06 11:10:00,
2013-02-06 05:15:00,3.6,3.0,30.16,NE,47,0.0,0.0,97,0.00,,,0.00,0,WeatherHawk,2013-02-06 11:15:00,
2013-02-06 05:20:00,2.6,1.5,30.16,NE,47,0.0,0.0,95,0.00,,,0.00,0,WeatherHawk,2013-02-06 11:20:00,
2013-02-06 05:25:00,0.9,-0.4,30.18,NE,47,0.0,0.0,94,0.00,,,0.00,0,WeatherHawk,2013-02-06 11:25:00,
2013-02-06 05:30:00,0.8,-1.0,30.17,NE,47,0.0,0.0,92,0.00,,,0.00,1,WeatherHawk,2013-02-06 11:30:00,
2013-02-06 05:35:00,-0.5,-2.7,30.17,NE,47,0.0,0.0,90,0.00,,,0.00,0,WeatherHawk,2013-02-06 11:35:00,
2013-02-06 05:40:00,-0.6,-2.3,30.17,NE,47,0.0,0.0,92,0.00,,,0.00,0,WeatherHawk,2013-02-06 11:40:00,
2013-02-06 05:45:00,-1.5,-3.7,30.17,NE,47,0.0,0.0,90,0.00,,,0.00,0,WeatherHawk,2013-02-06 11:45:00,
2013-02-06 05:50:00,0.3,-1.4,30.17,NE,47,0.0,-999.0,92,0.00,,,0.00,1,WeatherHawk,2013-02-06 11:50:00,
2013-02-06 05:55:00,-1.6,-3.1,30.16,NE,47,0.0,0.0,93,0.00,,,0.00,0,WeatherHawk,2013-02-06 11:55:00,
2013-02-06 06:00:00,-0.6,-2.1,30.16,NE,47,0.0,0.0,93,0.00,,,0.00,0,WeatherHawk,2013-02-06 12:00:00,
2013-02-06 06:05:00,-0.9,-2.4,30.16,NE,47,0.0,0.0,93,0.00,,,0.00,1,WeatherHawk,2013-02-06 12:05:00,
2013-02-06 06:10:00,1.1,-0.4,30.16,NE,47,0.0,0.0,93,0.00,,,0.00,1,WeatherHawk,2013-02-06 12:10:00,
2013-02-06 06:15:00,0.8,-0.7,30.16,NE,47,0.0,0.0,93,0.00,,,0.00,0,WeatherHawk,2013-02-06 12:15:00,
2013-02-06 06:20:00,2.0,0.9,30.16,NE,47,0.0,0.0,95,0.00,,,0.00,0,WeatherHawk,2013-02-06 12:20:00,
2013-02-06 06:25:00,2.9,2.4,30.16,NE,47,0.0,0.0,98,0.00,,,0.00,1,WeatherHawk,2013-02-06 12:25:00,
2013-02-06 06:30:00,0.3,-0.8,30.16,NE,47,0.0,0.0,95,0.00,,,0.00,0,WeatherHawk,2013-02-06 12:30:00,
2013-02-06 06:35:00,0.8,-0.8,30.17,NE,47,0.0,0.0,93,0.00,,,0.00,1,WeatherHawk,2013-02-06 12:35:00,
2013-02-06 06:40:00,-0.2,-2.0,30.16,NE,47,0.0,0.0,92,0.00,,,0.00,0,WeatherHawk,2013-02-06 12:40:00,
2013-02-06 06:45:00,-1.1,-3.1,30.17,NE,47,0.0,0.0,91,0.00,,,0.00,0,WeatherHawk,2013-02-06 12:45:00,
2013-02-06 06:50:00,0.9,-0.9,30.17,NE,47,0.0,0.0,92,0.00,,,0.00,0,WeatherHawk,2013-02-06 12:50:00,
2013-02-06 06:55:00,0.6,-0.8,30.17,NE,47,0.0,0.0,94,0.00,,,0.00,0,WeatherHawk,2013-02-06 12:55:00,
2013-02-06 07:00:00,-0.2,-1.6,30.18,NE,47,0.0,0.0,94,0.00,,,0.00,2,WeatherHawk,2013-02-06 13:00:00,
2013-02-06 07:05:00,-0.8,-2.3,30.18,NE,47,0.0,0.0,93,0.00,,,0.00,3,WeatherHawk,2013-02-06 13:05:00,
2013-02-06 07:10:00,2.1,0.8,30.18,NE,47,0.0,0.0,94,0.00,,,0.00,6,WeatherHawk,2013-02-06 13:10:00,
2013-02-06 07:15:00,1.5,0.4,30.19,NE,47,0.0,0.0,95,0.00,,,0.00,9,WeatherHawk,2013-02-06 13:15:00,
2013-02-06 07:20:00,-0.8,-2.3,30.19,NE,47,0.0,0.0,93,0.00,,,0.00,12,WeatherHawk,2013-02-06 13:20:00,
2013-02-06 07:25:00,1.0,-0.3,30.19,NE,47,0.0,0.0,94,0.00,,,0.00,14,WeatherHawk,2013-02-06 13:25:00,
2013-02-06 07:30:00,1.0,-0.4,30.20,NE,47,0.0,0.0,94,0.00,,,0.00,16,WeatherHawk,2013-02-06 13:30:00,
2013-02-06 07:35:00,3.8,2.9,30.20,NE,47,0.0,0.0,96,0.00,,,0.00,19,WeatherHawk,2013-02-06 13:35:00,
2013-02-06 07:40:00,2.7,2.1,30.20,NE,47,0.0,0.0,97,0.00,,,0.00,21,WeatherHawk,2013-02-06 13:40:00,
2013-02-06 07:45:00,2.1,1.5,30.20,NE,47,0.0,0.0,97,0.00,,,0.00,22,WeatherHawk,2013-02-06 13:45:00,
2013-02-06 07:50:00,3.1,2.2,30.20,NE,47,0.0,0.0,96,0.00,,,0.00,28,WeatherHawk,2013-02-06 13:50:00,
2013-02-06 07:55:00,4.0,3.5,30.20,NE,47,0.0,0.0,98,0.00,,,0.00,32,WeatherHawk,2013-02-06 13:55:00,
2013-02-06 08:00:00,3.9,3.2,30.20,NE,47,0.0,0.0,97,0.00,,,0.00,35,WeatherHawk,2013-02-06 14:00:00,
2013-02-06 08:05:00,4.2,3.5,30.21,NE,47,0.0,0.0,97,0.00,,,0.00,37,WeatherHawk,2013-02-06 14:05:00,
2013-02-06 08:10:00,6.1,5.7,30.21,NE,47,0.0,0.0,98,0.00,,,0.00,62,WeatherHawk,2013-02-06 14:10:00,
2013-02-06 08:15:00,11.9,11.9,30.21,NE,47,0.0,0.0,100,0.00,,,0.00,44,WeatherHawk,2013-02-06 14:15:00,
2013-02-06 08:20:00,11.4,11.4,30.21,NE,47,0.0,0.0,100,0.00,,,0.00,83,WeatherHawk,2013-02-06 14:20:00,
2013-02-06 08:25:00,11.0,11.0,30.21,NE,47,0.0,0.0,100,0.00,,,0.00,98,WeatherHawk,2013-02-06 14:25:00,
2013-02-06 08:30:00,14.7,14.7,30.21,NE,47,0.0,0.0,100,0.00,,,0.00,107,WeatherHawk,2013-02-06 14:30:00,
2013-02-06 08:35:00,13.3,13.3,30.21,ESE,103,0.0,0.0,100,0.00,,,0.00,120,WeatherHawk,2013-02-06 14:35:00,
2013-02-06 08:41:00,13.4,13.4,30.20,SSE,162,0.0,0.0,100,0.00,,,0.00,132,WeatherHawk,2013-02-06 14:41:00,
2013-02-06 08:46:00,14.8,14.8,30.20,SSE,157,0.0,0.0,100,0.00,,,0.00,150,WeatherHawk,2013-02-06 14:46:00,
2013-02-06 08:51:00,14.9,14.7,30.19,SE,132,0.0,2.0,99,0.00,,,0.00,162,WeatherHawk,2013-02-06 14:51:00,
2013-02-06 08:56:00,15.3,14.2,30.20,SSE,158,0.0,2.0,95,0.00,,,0.00,168,WeatherHawk,2013-02-06 14:56:00,
2013-02-06 09:01:00,16.7,14.8,30.20,SSE,157,0.0,2.0,92,0.00,,,0.00,184,WeatherHawk,2013-02-06 15:01:00,
2013-02-06 09:06:00,16.3,13.6,30.20,SSE,152,0.0,2.0,89,0.00,,,0.00,192,WeatherHawk,2013-02-06 15:06:00,
2013-02-06 09:11:00,16.5,13.3,30.20,SSE,165,0.0,2.0,87,0.00,,,0.00,202,WeatherHawk,2013-02-06 15:11:00,
2013-02-06 09:16:00,18.9,15.7,30.19,SSE,168,2.0,2.0,87,0.00,,,0.00,265,WeatherHawk,2013-02-06 15:16:00,
2013-02-06 09:22:00,20.6,16.8,30.20,SSE,163,0.0,3.0,85,0.00,,,0.00,303,WeatherHawk,2013-02-06 15:22:00,
2013-02-06 09:27:00,19.4,14.3,30.21,SSE,166,1.0,3.0,80,0.00,,,0.00,350,WeatherHawk,2013-02-06 15:27:00,
2013-02-06 09:32:00,21.7,14.4,30.22,SSE,168,0.0,3.0,73,0.00,,,0.00,363,WeatherHawk,2013-02-06 15:32:00,
2013-02-06 09:37:00,21.3,11.4,30.21,South,179,2.0,3.0,65,0.00,,,0.00,343,WeatherHawk,2013-02-06 15:37:00,
2013-02-06 09:42:00,22.4,11.1,30.21,SSE,161,3.0,4.0,61,0.00,,,0.00,383,WeatherHawk,2013-02-06 15:42:00,
2013-02-06 09:47:00,19.2,7.3,30.20,SE,144,5.0,5.0,59,0.00,,,0.00,262,WeatherHawk,2013-02-06 15:47:00,
2013-02-06 09:52:00,21.3,8.5,30.20,SSE,159,3.0,5.0,57,0.00,,,0.00,392,WeatherHawk,2013-02-06 15:52:00,
2013-02-06 09:58:00,24.0,10.6,30.20,SSE,159,3.0,5.0,56,0.00,,,0.00,507,WeatherHawk,2013-02-06 15:58:00,
2013-02-06 10:03:00,25.5,9.9,30.20,South,187,3.0,6.0,51,0.00,,,0.00,434,WeatherHawk,2013-02-06 16:03:00,
2013-02-06 10:08:00,23.8,7.9,30.20,SSE,167,4.0,6.0,50,0.00,,,0.00,433,WeatherHawk,2013-02-06 16:08:00,
2013-02-06 10:13:00,23.1,6.4,30.20,SSE,167,4.0,6.0,48,0.00,,,0.00,339,WeatherHawk,2013-02-06 16:13:00,
2013-02-06 10:18:00,22.5,5.3,30.20,SSE,166,3.0,6.0,47,0.00,,,0.00,244,WeatherHawk,2013-02-06 16:18:00,
2013-02-06 10:23:00,22.4,5.7,30.20,SSE,160,3.0,7.0,48,0.00,,,0.00,271,WeatherHawk,2013-02-06 16:23:00,
2013-02-06 10:28:00,22.4,4.8,30.21,SSE,154,5.0,7.0,46,0.00,,,0.00,439,WeatherHawk,2013-02-06 16:28:00,
2013-02-06 10:34:00,23.5,6.3,30.21,SSE,168,4.0,6.0,47,0.00,,,0.00,443,WeatherHawk,2013-02-06 16:34:00,
2013-02-06 10:39:00,22.7,5.0,30.21,South,170,5.0,6.0,46,0.00,,,0.00,451,WeatherHawk,2013-02-06 16:39:00,
2013-02-06 10:44:00,24.1,6.8,30.20,SSE,163,4.0,6.0,47,0.00,,,0.00,462,WeatherHawk,2013-02-06 16:44:00,
2013-02-06 10:49:00,24.0,6.7,30.19,South,182,4.0,6.0,47,0.00,,,0.00,468,WeatherHawk,2013-02-06 16:49:00,
2013-02-06 10:54:00,25.2,5.9,30.19,SSE,164,3.0,7.0,43,0.00,,,0.00,519,WeatherHawk,2013-02-06 16:54:00,
2013-02-06 10:59:00,23.5,4.8,30.18,SSE,151,5.0,7.0,44,0.00,,,0.00,434,WeatherHawk,2013-02-06 16:59:00,
2013-02-06 11:04:00,22.4,4.8,30.19,SSE,158,4.0,7.0,46,0.00,,,0.00,338,WeatherHawk,2013-02-06 17:04:00,
2013-02-06 11:09:00,23.0,6.8,30.19,SSE,160,5.0,7.0,49,0.00,,,0.00,374,WeatherHawk,2013-02-06 17:09:00,
2013-02-06 11:14:00,22.7,6.9,30.19,SE,142,5.0,7.0,50,0.00,,,0.00,268,WeatherHawk,2013-02-06 17:14:00,
2013-02-06 11:19:00,21.6,7.1,30.18,SSE,149,5.0,7.0,53,0.00,,,0.00,111,WeatherHawk,2013-02-06 17:19:00,
2013-02-06 11:24:00,23.2,7.8,30.18,SSE,167,7.0,7.0,51,0.00,,,0.00,369,WeatherHawk,2013-02-06 17:24:00,
2013-02-06 11:29:00,24.0,8.1,30.18,South,186,4.0,7.0,50,0.00,,,0.00,378,WeatherHawk,2013-02-06 17:29:00,
2013-02-06 11:34:00,22.7,7.3,30.18,SSE,161,6.0,7.0,51,0.00,,,0.00,333,WeatherHawk,2013-02-06 17:34:00,
2013-02-06 11:39:00,22.8,7.9,30.19,South,173,7.0,7.0,52,0.00,,,0.00,301,WeatherHawk,2013-02-06 17:39:00,
2013-02-06 11:44:00,24.1,9.0,30.19,South,176,5.0,8.0,52,0.00,,,0.00,375,WeatherHawk,2013-02-06 17:44:00,
2013-02-06 11:49:00,23.8,8.3,30.18,South,171,6.0,8.0,51,0.00,,,0.00,414,WeatherHawk,2013-02-06 17:49:00,
2013-02-06 11:54:00,24.4,8.9,30.18,South,175,3.0,8.0,51,0.00,,,0.00,393,WeatherHawk,2013-02-06 17:54:00,
2013-02-06 11:59:00,26.4,10.8,30.17,SSW,212,2.0,8.0,51,0.00,,,0.00,361,WeatherHawk,2013-02-06 17:59:00,
2013-02-06 12:04:00,24.2,7.3,30.17,SSE,150,5.0,9.0,48,0.00,,,0.00,343,WeatherHawk,2013-02-06 18:04:00,
2013-02-06 12:09:00,24.6,7.7,30.17,South,175,5.0,9.0,48,0.00,,,0.00,393,WeatherHawk,2013-02-06 18:09:00,
2013-02-06 12:14:00,25.6,8.6,30.18,SSE,147,4.0,7.0,48,0.00,,,0.00,406,WeatherHawk,2013-02-06 18:14:00,
2013-02-06 12:20:00,25.5,8.6,30.17,South,188,5.0,7.0,48,0.00,,,0.00,464,WeatherHawk,2013-02-06 18:20:00,
2013-02-06 12:25:00,25.4,8.0,30.16,South,180,5.0,6.0,47,0.00,,,0.00,404,WeatherHawk,2013-02-06 18:25:00,
2013-02-06 12:31:00,26.3,9.3,30.17,South,178,3.0,7.0,48,0.00,,,0.00,383,WeatherHawk,2013-02-06 18:31:00,
2013-02-06 12:36:00,27.9,11.3,30.17,SW,225,5.0,7.0,49,0.00,,,0.00,395,WeatherHawk,2013-02-06 18:36:00,
2013-02-06 12:42:00,26.0,8.6,30.16,SSE,148,5.0,7.0,47,0.00,,,0.00,375,WeatherHawk,2013-02-06 18:42:00,
2013-02-06 12:47:00,25.8,8.4,30.17,South,174,6.0,7.0,47,0.00,,,0.00,351,WeatherHawk,2013-02-06 18:47:00,
2013-02-06 12:52:00,26.9,9.9,30.17,SSE,166,3.0,7.0,48,0.00,,,0.00,364,WeatherHawk,2013-02-06 18:52:00,
2013-02-06 12:58:00,26.6,9.6,30.17,South,172,5.0,7.0,48,0.00,,,0.00,358,WeatherHawk,2013-02-06 18:58:00,
2013-02-06 13:03:00,27.2,10.1,30.16,South,178,3.0,6.0,48,0.00,,,0.00,366,WeatherHawk,2013-02-06 19:03:00,
2013-02-06 13:08:00,26.7,8.8,30.17,SSE,151,4.0,6.0,46,0.00,,,0.00,342,WeatherHawk,2013-02-06 19:08:00,
2013-02-06 13:13:00,27.0,9.0,30.16,South,170,5.0,6.0,46,0.00,,,0.00,312,WeatherHawk,2013-02-06 19:13:00,
2013-02-06 13:18:00,28.5,11.3,30.16,South,186,2.0,6.0,48,0.00,,,0.00,297,WeatherHawk,2013-02-06 19:18:00,
2013-02-06 13:23:00,28.3,11.1,30.15,South,175,3.0,6.0,48,0.00,,,0.00,313,WeatherHawk,2013-02-06 19:23:00,
2013-02-06 13:28:00,29.7,13.8,30.16,SSW,202,0.0,6.0,51,0.00,,,0.00,298,WeatherHawk,2013-02-06 19:28:00,
2013-02-06 13:33:00,27.5,10.8,30.16,SSE,168,5.0,6.0,49,0.00,,,0.00,249,WeatherHawk,2013-02-06 19:33:00,
2013-02-06 13:38:00,28.2,12.4,30.16,SSW,195,2.0,6.0,51,0.00,,,0.00,222,WeatherHawk,2013-02-06 19:38:00,
2013-02-06 13:43:00,28.4,12.6,30.16,South,180,1.0,8.0,51,0.00,,,0.00,232,WeatherHawk,2013-02-06 19:43:00,
2013-02-06 13:48:00,27.5,11.3,30.15,South,173,5.0,8.0,50,0.00,,,0.00,228,WeatherHawk,2013-02-06 19:48:00,
2013-02-06 13:53:00,27.8,12.5,30.15,South,171,4.0,7.0,52,0.00,,,0.00,212,WeatherHawk,2013-02-06 19:53:00,
2013-02-06 13:58:00,27.7,12.0,30.14,South,180,4.0,7.0,51,0.00,,,0.00,221,WeatherHawk,2013-02-06 19:58:00,
2013-02-06 14:03:00,27.6,11.8,30.15,South,180,5.0,7.0,51,0.00,,,0.00,198,WeatherHawk,2013-02-06 20:03:00,
2013-02-06 14:08:00,28.0,13.1,30.15,SSE,158,3.0,7.0,53,0.00,,,0.00,194,WeatherHawk,2013-02-06 20:08:00,
2013-02-06 14:13:00,27.8,12.1,30.14,SSE,157,4.0,6.0,51,0.00,,,0.00,222,WeatherHawk,2013-02-06 20:13:00,
2013-02-06 14:18:00,27.6,11.9,30.14,SSE,166,4.0,6.0,51,0.00,,,0.00,220,WeatherHawk,2013-02-06 20:18:00,
2013-02-06 14:24:00,27.7,12.0,30.14,South,171,5.0,7.0,51,0.00,,,0.00,234,WeatherHawk,2013-02-06 20:24:00,
2013-02-06 14:29:00,28.3,12.5,30.14,SSE,168,3.0,7.0,51,0.00,,,0.00,231,WeatherHawk,2013-02-06 20:29:00,
2013-02-06 14:34:00,27.9,12.1,30.14,South,176,5.0,5.0,51,0.00,,,0.00,216,WeatherHawk,2013-02-06 20:34:00,
2013-02-06 14:39:00,27.8,12.0,30.15,SSE,161,5.0,5.0,51,0.00,,,0.00,175,WeatherHawk,2013-02-06 20:39:00,
2013-02-06 14:45:00,27.9,13.0,30.14,SSE,156,3.0,6.0,53,0.00,,,0.00,200,WeatherHawk,2013-02-06 20:45:00,
2013-02-06 14:50:00,28.1,13.2,30.14,SE,143,2.0,6.0,53,0.00,,,0.00,180,WeatherHawk,2013-02-06 20:50:00,
2013-02-06 14:55:00,27.5,13.1,30.13,South,172,6.0,6.0,54,0.00,,,0.00,161,WeatherHawk,2013-02-06 20:55:00,
2013-02-06 15:00:00,28.3,14.2,30.13,SSE,156,0.0,6.0,55,0.00,,,0.00,122,WeatherHawk,2013-02-06 21:00:00,
2013-02-06 15:05:00,27.4,13.4,30.14,SSE,163,6.0,6.0,55,0.00,,,0.00,110,WeatherHawk,2013-02-06 21:05:00,
2013-02-06 15:10:00,27.5,13.8,30.13,SSE,150,5.0,6.0,56,0.00,,,0.00,137,WeatherHawk,2013-02-06 21:10:00,
2013-02-06 15:15:00,27.6,14.0,30.13,South,174,5.0,7.0,56,0.00,,,0.00,145,WeatherHawk,2013-02-06 21:15:00,
2013-02-06 15:20:00,27.8,14.6,30.13,SE,145,3.0,7.0,57,0.00,,,0.00,135,WeatherHawk,2013-02-06 21:20:00,
2013-02-06 15:25:00,27.8,14.5,30.13,SSE,147,5.0,7.0,57,0.00,,,0.00,126,WeatherHawk,2013-02-06 21:25:00,
2013-02-06 15:30:00,27.7,14.9,30.13,SE,141,5.0,7.0,58,0.00,,,0.00,127,WeatherHawk,2013-02-06 21:30:00,
2013-02-06 15:35:00,27.7,15.3,30.13,SSE,152,4.0,6.0,59,0.00,,,0.00,126,WeatherHawk,2013-02-06 21:35:00,
2013-02-06 15:40:00,27.8,15.3,30.13,SSE,162,8.0,8.0,59,0.00,,,0.00,127,WeatherHawk,2013-02-06 21:40:00,
2013-02-06 15:45:00,28.1,16.0,30.13,SSE,161,6.0,7.0,60,0.00,,,0.00,127,WeatherHawk,2013-02-06 21:45:00,
2013-02-06 15:50:00,28.1,16.0,30.12,South,169,7.0,7.0,60,0.00,,,0.00,140,WeatherHawk,2013-02-06 21:50:00,
2013-02-06 15:55:00,28.2,16.2,30.13,South,177,5.0,8.0,60,0.00,,,0.00,156,WeatherHawk,2013-02-06 21:55:00,
2013-02-06 16:00:00,28.8,16.3,30.12,South,172,5.0,8.0,59,0.00,,,0.00,258,WeatherHawk,2013-02-06 22:00:00,
2013-02-06 16:05:00,28.7,15.8,30.12,SE,126,5.0,8.0,58,0.00,,,0.00,198,WeatherHawk,2013-02-06 22:05:00,
2013-02-06 16:10:00,28.7,16.2,30.11,SSE,165,4.0,8.0,59,0.00,,,0.00,174,WeatherHawk,2013-02-06 22:10:00,
2013-02-06 16:16:00,28.8,16.3,30.11,SSE,147,4.0,8.0,59,0.00,,,0.00,161,WeatherHawk,2013-02-06 22:16:00,
2013-02-06 16:21:00,28.6,16.1,30.12,SSE,148,5.0,9.0,59,0.00,,,0.00,138,WeatherHawk,2013-02-06 22:21:00,
2013-02-06 16:26:00,28.6,16.5,30.12,SSE,168,6.0,9.0,60,0.00,,,0.00,112,WeatherHawk,2013-02-06 22:26:00,
2013-02-06 16:31:00,28.4,16.7,30.12,SSE,158,3.0,7.0,61,0.00,,,0.00,78,WeatherHawk,2013-02-06 22:31:00,
2013-02-06 16:36:00,28.2,16.9,30.12,South,169,6.0,7.0,62,0.00,,,0.00,68,WeatherHawk,2013-02-06 22:36:00,
2013-02-06 16:41:00,28.4,17.5,30.11,SSE,160,5.0,7.0,63,0.00,,,0.00,72,WeatherHawk,2013-02-06 22:41:00,
2013-02-06 16:46:00,28.5,17.9,30.10,ESE,109,6.0,7.0,64,0.00,,,0.00,44,WeatherHawk,2013-02-06 22:46:00,
2013-02-06 16:51:00,28.2,17.6,30.11,South,181,5.0,6.0,64,0.00,,,0.00,36,WeatherHawk,2013-02-06 22:51:00,
2013-02-06 16:56:00,28.2,18.0,30.11,SSE,149,6.0,6.0,65,0.00,,,0.00,20,WeatherHawk,2013-02-06 22:56:00,
2013-02-06 17:01:00,27.6,17.4,30.10,ESE,114,3.0,8.0,65,0.00,,,0.00,11,WeatherHawk,2013-02-06 23:01:00,
2013-02-06 17:06:00,27.8,17.9,30.09,SE,131,4.0,8.0,66,0.00,,,0.00,6,WeatherHawk,2013-02-06 23:06:00,
2013-02-06 17:12:00,27.5,18.3,30.09,ESE,104,2.0,8.0,68,0.00,,,0.00,4,WeatherHawk,2013-02-06 23:12:00,
2013-02-06 17:17:00,27.5,18.3,30.08,SE,125,5.0,8.0,68,0.00,,,0.00,3,WeatherHawk,2013-02-06 23:17:00,
2013-02-06 17:22:00,27.4,18.2,30.08,SSE,153,6.0,7.0,68,0.00,,,0.00,1,WeatherHawk,2013-02-06 23:22:00,
2013-02-06 17:27:00,27.0,17.9,30.08,SSE,156,5.0,7.0,68,0.00,,,0.00,0,WeatherHawk,2013-02-06 23:27:00,
2013-02-06 17:32:00,27.0,17.9,30.08,SE,134,4.0,9.0,68,0.00,,,0.00,0,WeatherHawk,2013-02-06 23:32:00,
2013-02-06 17:37:00,26.9,18.1,30.08,ESE,122,5.0,9.0,69,0.00,,,0.00,0,WeatherHawk,2013-02-06 23:37:00,
2013-02-06 17:42:00,26.6,17.8,30.08,SSE,168,5.0,9.0,69,0.00,,,0.00,0,WeatherHawk,2013-02-06 23:42:00,
2013-02-06 17:47:00,26.6,18.1,30.08,SSE,160,3.0,9.0,70,0.00,,,0.00,0,WeatherHawk,2013-02-06 23:47:00,
2013-02-06 17:52:00,26.6,18.1,30.08,SSE,147,5.0,8.0,70,0.00,,,0.00,0,WeatherHawk,2013-02-06 23:52:00,
2013-02-06 17:57:00,26.4,18.3,30.09,SSE,148,4.0,8.0,71,0.00,,,0.00,0,WeatherHawk,2013-02-06 23:57:00,
2013-02-06 18:02:00,26.5,18.3,30.08,SSW,192,4.0,8.0,71,0.00,,,0.00,0,WeatherHawk,2013-02-07 00:02:00,
2013-02-06 18:07:00,26.5,18.4,30.08,South,176,4.0,8.0,71,0.00,,,0.00,1,WeatherHawk,2013-02-07 00:07:00,
2013-02-06 18:13:00,26.8,19.0,30.09,SE,144,3.0,7.0,72,0.00,,,0.00,0,WeatherHawk,2013-02-07 00:13:00,
2013-02-06 18:18:00,26.7,19.2,30.09,SSE,151,1.0,7.0,73,0.00,,,0.00,1,WeatherHawk,2013-02-07 00:18:00,
2013-02-06 18:23:00,26.7,19.2,30.08,SSE,155,4.0,8.0,73,0.00,,,0.00,0,WeatherHawk,2013-02-07 00:23:00,
2013-02-06 18:28:00,26.8,19.7,30.10,SSE,164,0.0,8.0,74,0.00,,,0.00,0,WeatherHawk,2013-02-07 00:28:00,
2013-02-06 18:33:00,26.8,19.6,30.10,SSE,164,0.0,5.0,74,0.00,,,0.00,0,WeatherHawk,2013-02-07 00:33:00,
2013-02-06 18:38:00,26.8,19.7,30.10,SSE,164,0.0,5.0,74,0.00,,,0.00,0,WeatherHawk,2013-02-07 00:38:00,
2013-02-06 18:43:00,27.0,20.1,30.10,ESE,103,0.0,4.0,75,0.00,,,0.00,0,WeatherHawk,2013-02-07 00:43:00,
2013-02-06 18:48:00,27.0,19.8,30.10,ESE,103,0.0,4.0,74,0.00,,,0.00,0,WeatherHawk,2013-02-07 00:48:00,
2013-02-06 18:53:00,27.3,20.5,30.10,SE,141,2.0,0.0,75,0.00,,,0.00,0,WeatherHawk,2013-02-07 00:53:00,
2013-02-06 18:58:00,27.4,20.8,30.10,East,97,0.0,0.0,76,0.00,,,0.00,0,WeatherHawk,2013-02-07 00:58:00,
2013-02-06 19:03:00,27.6,21.0,30.10,ESE,116,0.0,0.0,76,0.00,,,0.00,0,WeatherHawk,2013-02-07 01:03:00,
2013-02-06 19:08:00,27.6,21.1,30.10,SE,140,0.0,0.0,76,0.00,,,0.00,0,WeatherHawk,2013-02-07 01:08:00,
2013-02-06 19:13:00,27.9,21.6,30.09,SSE,147,5.0,5.0,77,0.00,,,0.00,0,WeatherHawk,2013-02-07 01:13:00,
2013-02-06 19:18:00,27.8,21.6,30.09,SE,144,4.0,4.0,77,0.00,,,0.00,1,WeatherHawk,2013-02-07 01:18:00,
2013-02-06 19:23:00,27.9,21.3,30.09,SSE,168,6.0,6.0,76,0.00,,,0.00,0,WeatherHawk,2013-02-07 01:23:00,
2013-02-06 19:28:00,27.8,21.6,30.09,SSE,159,4.0,4.0,77,0.00,,,0.00,1,WeatherHawk,2013-02-07 01:28:00,
2013-02-06 19:33:00,28.0,22.0,30.08,SSE,158,3.0,8.0,78,0.00,,,0.00,1,WeatherHawk,2013-02-07 01:33:00,
2013-02-06 19:38:00,27.8,22.8,30.08,SE,144,5.0,8.0,81,0.00,,,0.00,0,WeatherHawk,2013-02-07 01:38:00,
2013-02-06 19:44:00,27.8,23.8,30.08,SE,137,4.0,6.0,85,0.00,,,0.00,0,WeatherHawk,2013-02-07 01:44:00,
2013-02-06 19:49:00,27.8,24.5,30.07,SSE,148,3.0,6.0,87,0.00,,,0.00,0,WeatherHawk,2013-02-07 01:49:00,
2013-02-06 19:54:00,28.0,24.7,30.07,SE,139,3.0,7.0,87,0.00,,,0.00,0,WeatherHawk,2013-02-07 01:54:00,
2013-02-06 19:59:00,28.1,25.1,30.06,SE,136,4.0,7.0,88,0.00,,,0.00,0,WeatherHawk,2013-02-07 01:59:00,
2013-02-06 20:04:00,28.4,25.0,30.06,South,184,4.0,7.0,87,0.00,,,0.00,0,WeatherHawk,2013-02-07 02:04:00,
2013-02-06 20:09:00,28.6,24.9,30.04,SE,136,7.0,7.0,86,0.00,,,0.00,0,WeatherHawk,2013-02-07 02:09:00,
2013-02-06 20:14:00,28.7,24.7,30.07,SSE,156,8.0,8.0,85,0.00,,,0.00,0,WeatherHawk,2013-02-07 02:14:00,
2013-02-06 20:19:00,28.6,24.4,30.05,SE,144,6.0,8.0,84,0.00,,,0.00,0,WeatherHawk,2013-02-07 02:19:00,
2013-02-06 20:24:00,28.8,24.3,30.06,SSE,158,9.0,11.0,83,0.00,,,0.00,0,WeatherHawk,2013-02-07 02:24:00,
2013-02-06 20:30:00,28.9,24.2,30.06,SE,135,5.0,11.0,82,0.00,,,0.00,0,WeatherHawk,2013-02-07 02:30:00,
2013-02-06 20:35:00,29.2,24.4,30.05,SE,130,8.0,10.0,82,0.00,,,0.00,0,WeatherHawk,2013-02-07 02:35:00,
2013-02-06 20:40:00,29.2,24.4,30.06,ESE,118,4.0,10.0,82,0.00,,,0.00,0,WeatherHawk,2013-02-07 02:40:00,
2013-02-06 20:45:00,29.5,24.7,30.05,SSE,148,6.0,11.0,82,0.00,,,0.00,0,WeatherHawk,2013-02-07 02:45:00,
2013-02-06 20:50:00,29.9,25.1,30.05,SE,130,7.0,11.0,82,0.00,,,0.00,0,WeatherHawk,2013-02-07 02:50:00,
2013-02-06 20:55:00,29.9,24.8,30.05,South,175,8.0,10.0,81,0.00,,,0.00,0,WeatherHawk,2013-02-07 02:55:00,
2013-02-06 21:00:00,30.3,25.2,30.06,South,185,7.0,10.0,81,0.00,,,0.00,0,WeatherHawk,2013-02-07 03:00:00,
2013-02-06 21:05:00,30.5,25.6,30.05,SE,132,5.0,10.0,82,0.00,,,0.00,0,WeatherHawk,2013-02-07 03:05:00,
2013-02-06 21:10:00,30.6,25.5,30.05,SSE,152,5.0,10.0,81,0.00,,,0.00,0,WeatherHawk,2013-02-07 03:10:00,
2013-02-06 21:15:00,30.7,25.3,30.06,ENE,64,0.0,9.0,80,0.00,,,0.00,0,WeatherHawk,2013-02-07 03:15:00,
2013-02-06 21:20:00,30.6,25.1,30.06,SE,138,0.0,9.0,80,0.00,,,0.00,0,WeatherHawk,2013-02-07 03:20:00,
2013-02-06 21:25:00,30.6,25.2,30.05,East,88,4.0,11.0,80,0.00,,,0.00,0,WeatherHawk,2013-02-07 03:25:00,
2013-02-06 21:30:00,30.6,25.1,30.04,SE,127,3.0,11.0,80,0.00,,,0.00,0,WeatherHawk,2013-02-07 03:30:00,
2013-02-06 21:35:00,30.6,25.1,30.05,SSE,163,5.0,6.0,80,0.00,,,0.00,0,WeatherHawk,2013-02-07 03:35:00,
2013-02-06 21:40:00,30.7,25.5,30.04,South,170,5.0,6.0,81,0.00,,,0.00,0,WeatherHawk,2013-02-07 03:40:00,
2013-02-06 21:45:00,30.7,25.6,30.04,SE,138,5.0,7.0,81,0.00,,,0.00,1,WeatherHawk,2013-02-07 03:45:00,
2013-02-06 21:50:00,30.7,25.6,30.05,SE,141,2.0,7.0,81,0.00,,,0.00,0,WeatherHawk,2013-02-07 03:50:00,
2013-02-06 21:55:00,30.8,25.9,30.05,SSE,157,0.0,7.0,82,0.00,,,0.00,0,WeatherHawk,2013-02-07 03:55:00,
2013-02-06 22:01:00,31.1,26.3,30.06,SSE,155,4.0,7.0,82,0.00,,,0.00,0,WeatherHawk,2013-02-07 04:01:00,
2013-02-06 22:06:00,30.9,26.1,30.06,South,172,0.0,8.0,82,0.00,,,0.00,0,WeatherHawk,2013-02-07 04:06:00,
2013-02-06 22:11:00,30.8,26.2,30.07,South,172,0.0,8.0,83,0.00,,,0.00,0,WeatherHawk,2013-02-07 04:11:00,
2013-02-06 22:16:00,30.8,26.6,30.08,WNW,287,0.0,5.0,84,0.00,,,0.00,0,WeatherHawk,2013-02-07 04:16:00,
2013-02-06 22:21:00,30.6,26.3,30.08,WNW,287,0.0,5.0,84,0.00,,,0.00,0,WeatherHawk,2013-02-07 04:21:00,
2013-02-06 22:26:00,30.8,26.9,30.07,NNE,33,0.0,0.0,85,0.00,,,0.00,1,WeatherHawk,2013-02-07 04:26:00,
2013-02-06 22:31:00,31.4,27.7,30.08,SSE,165,0.0,-999.0,86,0.00,,,0.00,0,WeatherHawk,2013-02-07 04:31:00,
2013-02-06 22:36:00,31.1,27.1,30.07,NE,56,0.0,0.0,85,0.00,,,0.00,0,WeatherHawk,2013-02-07 04:36:00,
2013-02-06 22:41:00,31.5,27.5,30.08,ENE,60,0.0,0.0,85,0.00,,,0.00,0,WeatherHawk,2013-02-07 04:41:00,
2013-02-06 22:48:00,32.0,28.3,30.07,SE,133,2.0,-999.0,86,0.00,,,0.00,0,WeatherHawk,2013-02-07 04:48:00,
2013-02-06 23:00:00,31.4,27.1,30.06,SSE,150,0.0,2.0,84,0.00,,,0.00,0,WeatherHawk,2013-02-07 05:00:00,
2013-02-06 23:01:00,32.1,28.1,30.06,SSE,156,3.0,3.0,85,0.00,,,0.00,0,WeatherHawk,2013-02-07 05:01:00,
2013-02-06 23:06:00,31.9,27.9,30.06,South,180,5.0,5.0,85,0.00,,,0.00,0,WeatherHawk,2013-02-07 05:06:00,
2013-02-06 23:11:00,31.8,27.8,30.06,South,175,0.0,3.0,85,0.00,,,0.00,0,WeatherHawk,2013-02-07 05:11:00,
2013-02-06 23:16:00,32.1,28.4,30.05,South,172,3.0,6.0,86,0.00,,,0.00,0,WeatherHawk,2013-02-07 05:16:00,
2013-02-06 23:21:00,32.2,28.2,30.05,SSE,156,3.0,-999.0,85,0.00,,,0.00,0,WeatherHawk,2013-02-07 05:21:00,
2013-02-06 23:26:00,32.1,28.1,30.06,South,177,2.0,5.0,85,0.00,,,0.00,0,WeatherHawk,2013-02-07 05:26:00,
2013-02-06 23:31:00,32.1,28.4,30.06,South,175,0.0,0.0,86,0.00,,,0.00,0,WeatherHawk,2013-02-07 05:31:00,
2013-02-06 23:37:00,31.8,28.1,30.06,South,175,0.0,5.0,86,0.00,,,0.00,0,WeatherHawk,2013-02-07 05:37:00,
2013-02-06 23:42:00,32.1,28.4,30.06,ESE,123,0.0,2.0,86,0.00,,,0.00,0,WeatherHawk,2013-02-07 05:42:00,
2013-02-06 23:47:00,32.2,28.8,30.06,ESE,118,0.0,2.0,87,0.00,,,0.00,1,WeatherHawk,2013-02-07 05:47:00,
2013-02-06 23:52:00,32.1,28.4,30.06,SSE,155,0.0,0.0,86,0.00,,,0.00,0,WeatherHawk,2013-02-07 05:52:00,
2013-02-06 23:57:00,32.2,28.5,30.06,SSE,153,0.0,0.0,86,0.00,,,0.00,0,WeatherHawk,2013-02-07 05:57:00,